User: anonymous   Login
Location: Caltech
(34.1382°N, 118.1253°W)
Time: 10:49:08
(UTC-08:00)
Language:

BREEZE M DEB (TANK) - Orbit

View from above orbital plane
View from above orbital plane
View from above satellite
View from above satellite

Ground track
Ground track

The orbit data is extracted from the following two-line orbital elements,

1 33437U 08057B   16038.78025457 +.00002930 +00000-0 +65104-3 0  9999
2 33437 049.5640 309.6435 5004489 075.6352 333.1569 05.58908462146107
Epoch (UTC): 07 February 2016 18:43:33
Eccentricity: 0.5004489
inclination: 49.5640°
perigee height: 322 km
apogee height: 13746 km
right ascension of ascending node: 309.6435°
argument of perigee: 75.6352°
revolutions per day: 5.58908462
mean anomaly at epoch: 333.1569°
orbit number at epoch: 14610

The dashed part of the orbit path shows where the satellite is in the earth's shadow,  

DLR